Regional Weather Roundup
Issued by NWS

Home | Current Version | Previous Version | Graphics & Text | Print | Product List | Glossary On
Versions: 1 2 3 4 5 6 7 8 9 10 11 12 13 14 15 16 17 18 19 20 21 22 23 24 25 26 27 28 29 30 31 32 33 34 35 36 37 38 39 40 41 42 43 44 45 46 47 48 49 50
000
ASUS43 KOAX 291902
RWRNE

WEATHER ROUNDUP FOR NEBRASKA
NATIONAL WEATHER SERVICE OMAHA NE
200 PM CDT SAT AUG 29 2015

NOTES: SATELLITE DATA IS BEING USED TO AUGMENT CLOUD COVER ABOVE
       12000 FEET.
       "FAIR" INDICATES FEW OR NO CLOUDS BELOW 12,000 FEET WITH NO
       SIGNIFICANT WEATHER AND/OR OBSTRUCTIONS TO VISIBILITY.

  * THESE STATIONS DO NOT REPORT WEATHER SUCH AS RAIN...SNOW OR FOG.

NEZ001>004-019>022-054>056-292000-
NEBRASKA PANHANDLE

CITY           SKY/WX    TMP DP  RH WIND       PRES   REMARKS
SCOTTSBLUFF    SUNNY     89  52  28 E8        30.11F
ALLIANCE       SUNNY     90  39  16 S12       30.12F
CHADRON        SUNNY     94  42  16 SW10G21   30.04F HAZE    HX  90
KIMBALL        SUNNY     86  37  17 S10G20    30.18F
SIDNEY         SUNNY     89  38  16 S14G21    30.17F
$$

NEZ057>060-069>072-079>082-292000-
SOUTHWEST NEBRASKA

CITY           SKY/WX    TMP DP  RH WIND       PRES   REMARKS
NORTH PLATTE   MOSUNNY   85  60  42 VRB3      30.10F
IMPERIAL       SUNNY     90  51  26 S7        30.13F
MCCOOK         SUNNY     90  45  21 VRB3      30.11F
$$

NEZ005>010-023>029-035>040-094-292000-
NORTH CENTRAL NEBRASKA

CITY           SKY/WX    TMP DP  RH WIND       PRES   REMARKS
VALENTINE      MOSUNNY   88  53  30 SW6       30.05F
AINSWORTH      MOSUNNY   87  57  35 S6        30.07F
BROKEN BOW     MOSUNNY   84  60  44 CALM      30.10F
O`NEILL        MOSUNNY   83  63  51 S6        30.06F
ORD            MOSUNNY   84  64  50 E5        30.06F
$$

NEZ041-046>049-061>064-073>077-083>087-292000-
SOUTH CENTRAL NEBRASKA

CITY           SKY/WX    TMP DP  RH WIND       PRES   REMARKS
GRAND ISLAND   SUNNY     79  61  53 CALM      30.09F
AURORA         SUNNY     76  63  64 NE5       30.09F
HASTINGS       SUNNY     78  63  59 NE7       30.10S
KEARNEY *      SUNNY     82  61  47 N6        30.09F
YORK           SUNNY     73  64  73 N7        30.10S
$$

NEZ011>018-030>034-042>045-292000-
NORTHEAST NEBRASKA

CITY           SKY/WX    TMP DP  RH WIND       PRES   REMARKS
NORFOLK        MOSUNNY   76  61  59 E5        30.07F
ALBION         SUNNY     78  64  61 S3        30.08F
BLAIR          CLOUDY    63  59  85 NE6       30.08F
COLUMBUS *     SUNNY     73  61  64 NE3       30.08F
FREMONT        CLOUDY    68  61  77 N3        30.09F
TEKAMAH        CLOUDY    65  60  84 CALM      30.08F
$$

NEZ050>053-065>068-078-088>093-292000-
SOUTHEAST NEBRASKA

CITY           SKY/WX    TMP DP  RH WIND       PRES   REMARKS
LINCOLN        CLOUDY    69  61  75 VRB6      30.09F
OMAHA EPPLEY   CLOUDY    67  61  81 NW8       30.07F
BEATRICE       CLOUDY    65  61  87 N5        30.09S
FALLS CITY     CLOUDY    67  63  87 N7        30.06S
NEBRASKA CITY  CLOUDY    64  62  96 N6        30.08S
PLATTSMOUTH    CLOUDY    64  59  84 CALM      30.08S
$$

NEZ044-045-051>053-067-292000-
OMAHA AREA

CITY           SKY/WX    TMP DP  RH WIND       PRES   REMARKS
OMAHA EPPLEY   CLOUDY    67  61  81 NW8       30.07F
BLAIR          CLOUDY    63  59  85 NE6       30.08F
FREMONT        CLOUDY    68  61  77 N3        30.09F
OFFUTT AFB     CLOUDY    66  61  82 N6        30.07F
PLATTSMOUTH    CLOUDY    64  59  84 CALM      30.08S
WAHOO          CLOUDY    68  62  81 NW3       30.09S
$$




USA.gov is the U.S. government's official web portal to all federal, state and local government web resources and services.